PROMETHEUS 2-3

Last updated on Wed Oct 29 2025 00:03:53 GMT+0000 (Coordinated Universal Time)

1 41855U 16067H 25301.63024927 .00224520 00000+0 15577-2 0 9998 2 41855 98.0388 172.3170 0006382 94.6302 265.5689 15.73765208492353
UTC large
Height (km)
Speed (km/s)
/
Latitude / Longitude
Inclination (degrees)
Orbital Period (minutes)
Azimuth
Elevation
Range (km)
Doppler Factor

Next 0 passes for location: London (51.5072 / 0.1276)

Sorry there are no passes over London.